Regional Weather Roundup
Issued by NWS Bismarck, ND

Home | Current Version | Previous Version | Text Only | Print | Product List | Glossary On
Versions: 1 2 3 4 5 6 7 8 9 10 11 12 13 14 15 16 17 18 19 20 21 22 23 24 25 26 27 28 29 30 31 32 33 34 35 36 37 38 39 40 41 42 43 44 45 46 47 48 49 50
000
ASUS43 KBIS 182020
RWRBIS

NWR BROADCAST TEXT
NATIONAL WEATHER SERVICE BISMARCK ND
300 PM CDT THU SEP 18 2014

NOTE: "FAIR" INDICATES FEW OR NO CLOUDS BELOW 12,000 FEET WITH NO
SIGNIFICANT WEATHER AND/OR OBSTRUCTIONS TO VISIBILITY.


CITY           SKY/WX    TMP DP  RH WIND       PRES   REMARKS
WILLISTON      PTSUNNY   82  55  39 S9        29.64F
MINOT          CLOUDY    78  59  51 S15G23    29.67F
MINOT AFB      CLOUDY    77  61  57 S20G26    29.66F
BISMARCK       PTSUNNY   82  61  48 S18G26    29.75F
DICKINSON      PTSUNNY   77  58  51 S15       29.72F
GARRISON         N/A     76  63  64 S15G22    29.71F
HETTINGER ARPT PTSUNNY   77  59  53 S13       29.78F
JAMESTOWN      SUNNY     76  59  55 S16G28    29.81F
BEACH            N/A     81  54  39 W12G17    29.74S
CARRINGTON     FAIR      75  59  57 S21G31    29.79F
CROSBY         FAIR      81  54  39 S17G23    29.61F
HARVEY         FAIR      77  59  53 S17G30    29.73F
HAZEN          FAIR      77  63  61 S16G22    29.71F
LINTON         FAIR      82  63  51 S23G30    29.77F
MANDAN         FAIR      81  61  50 S17G26    29.75F
OAKES            N/A     81  63  54 S16G22    29.84F
RUGBY          FAIR      77  57  50 S18G24    29.72F
STANLEY        FAIR      73  59  60 S15G28    29.67F
TIOGA          FAIR      81  55  41 S15G24    29.68F
WATFORD CITY   FAIR      81  54  39 S13G20    29.64F
$$

CITY           SKY/WX    TMP DP  RH WIND       PRES   REMARKS
GRAND FORKS    MOSUNNY   72  56  57 S15G24    29.85F
GRAND FORKS AF SUNNY     70  58  64 S17       29.85F
DEVILS LAKE    SUNNY     73  55  53 S20       29.76F
FARGO          SUNNY     72  57  59 S17G24    29.88F
CANDO          FAIR      75  55  50 S24       29.76F
CAVALIER       FAIR      66  54  63 SE14G23   29.81F
GRAFTON        FAIR      68  55  64 S20       29.83F
GWINNER        PTCLDY    73  59  60 SE10      29.87F
LANGDON        FAIR      73  54  49 S22G31    29.78F
ROLLA          FAIR      73  50  43 S23G33    29.73F
WALHALLA         N/A     66  57  72 S18G25    29.80F
$$

CITY           SKY/WX    TMP DP  RH WIND       PRES   REMARKS
ABERDEEN       SUNNY     78  62  57 S20G26    29.85F
MOBRIDGE       MOSUNNY   81  62  52 S20G26    29.76F
BUFFALO          N/A     81  56  42 S10       29.72F
RAPID CITY     PTSUNNY   86  56  35 SE12      29.79F
GLASGOW        PTSUNNY   73  56  54 S5        29.64F
SIDNEY         CLOUDY   N/A N/A N/A S14       29.66F
WOLF POINT     CLOUDY    76  56  49 W6        29.63F
GLENDIVE       CLOUDY    75  55  50 SW12      29.71F
MILES CITY     CLOUDY    76  50  40 W13       29.73F
BAKER          CLOUDY    82  54  37 W12       29.76S
$$

CITY           SKY/WX    TMP DP  RH WIND       PRES   REMARKS
BILLINGS       CLOUDY    67  57  70 SW17      29.83S
GREAT FALLS    CLOUDY    72  45  37 SW12      29.75F
REGINA         CLOUDY    77  57  50 S15       29.55F
ESTEVAN        CLOUDY    77  57  50 S14       29.62F
$$




USA.gov is the U.S. government's official web portal to all federal, state and local government web resources and services.